Weather History for Minot, ND

Change the Weather History Date:

Sunday, March 10, 2013

  Actual Average Record
Temperature  
Mean Temperature 13 °F 25 °F  
Max Temperature 23 °F 34 °F 64 °F (2012)
Min Temperature 2 °F 17 °F -29 °F (1948)
Degree Days  
Heating Degree Days 52 40  
Month to date heating degree days 478 416  
Since 1 July heating degree days 7208 6992  
Cooling Degree Days 0 0  
Month to date cooling degree days 0 0  
Year to date cooling degree days 0 0  
Moisture  
Dew Point 6 °F    
Average Humidity 75    
Maximum Humidity 88    
Minimum Humidity 62    
Precipitation  
Precipitation T in 0.02 in 0.13 in (1962)
Month to date precipitation 0.18 0.20  
Year to date precipitation 0.72 1.11  
Sea Level Pressure  
Sea Level Pressure 30.28 in    
Wind  
Wind Speed 7 mph (WSW)    
Max Wind Speed 22 mph    
Max Gust Speed 25 mph    
Visibility 10 miles    
Events      
T = Trace of Precipitation, MM = Missing Value Source: NWS Daily Summary

Daily Weather History Graph

Daily Weather History Graph

Search for Another Location

Airport:

Trip Planner

Search our weather history database for the weather conditions in past years. The results will help you decide how hot, cold, wet, or windy it might be!

Date:

Astronomy

Mar. 10, 2013 Rise Set
Actual Time 8:07 AM CDT 7:43 PM CDT
Civil Twilight 7:36 AM CDT 8:14 PM CDT
Nautical Twilight 7:00 AM CDT 8:50 PM CDT
Astronomical Twilight 6:23 AM CDT 9:27 PM CDT
Moon 7:11 AM CDT (3/10) 6:52 PM CDT (3/10)
Length of Visible Light 12h 37m
Length of Day
11h 35m
Waning Crescent, 2% of the Moon is Illuminated
Mar 10
Waning Crescent
Mar 11
New
Mar 19
First Quarter
Mar 27
Full
Apr 2
Last Quarter

Hourly Weather History & Observations

Time (CDT) Temp. Windchill Dew Point Humidity Pressure Visibility Wind Dir Wind Speed Gust Speed Precip Events Conditions
12:54 AM 9.0 °F -10.0 °F 3.9 °F 80% 30.26 in 7.0 mi WNW 19.6 mph - N/A   Clear
1:54 AM 8.1 °F -10.2 °F 3.9 °F 83% 30.28 in 8.0 mi WNW 17.3 mph - N/A   Clear
3:54 AM 7.0 °F -10.4 °F 3.0 °F 84% 30.29 in 9.0 mi WNW 15.0 mph - N/A   Clear
4:54 AM 5.0 °F -11.6 °F 1.0 °F 84% 30.30 in 9.0 mi West 12.7 mph - N/A   Clear
5:54 AM 5.0 °F -12.3 °F -0.0 °F 80% 30.32 in 9.0 mi West 13.8 mph - N/A   Clear
6:54 AM 5.0 °F -11.6 °F 1.4 °F 85% 30.23 in 9.0 mi West 12.7 mph - N/A   Clear
7:54 AM 3.9 °F -11.3 °F -0.0 °F 84% 30.38 in 10.0 mi West 10.4 mph - N/A   Clear
8:54 AM 3.9 °F -9.4 °F -0.0 °F 84% 30.39 in 8.0 mi West 8.1 mph - N/A   Clear
9:54 AM 7.0 °F -3.3 °F 1.9 °F 80% 30.40 in 9.0 mi WSW 5.8 mph - N/A   Clear
10:54 AM 10.0 °F 1.8 °F 5.0 °F 80% 30.40 in 10.0 mi WSW 4.6 mph - N/A   Clear
11:54 AM 15.1 °F 9.4 °F 6.1 °F 68% 30.39 in 10.0 mi NNW 3.5 mph - N/A   Clear
12:54 PM 16.0 °F - 8.1 °F 71% 30.35 in 10.0 mi Calm Calm - N/A   Clear
1:54 PM 19.9 °F - 10.9 °F 68% 30.34 in 10.0 mi Calm Calm - 0.00 in   Clear
2:54 PM 19.9 °F - 10.0 °F 65% 30.31 in 10.0 mi Calm Calm - N/A   Clear
3:54 PM 21.0 °F 13.4 °F 10.9 °F 65% 30.29 in 10.0 mi West 5.8 mph - N/A   Clear
4:54 PM 21.0 °F - 10.9 °F 65% 30.27 in 10.0 mi Calm Calm - N/A   Clear
5:54 PM 18.0 °F 9.8 °F 12.0 °F 78% 30.25 in 10.0 mi East 5.8 mph - N/A   Clear
6:54 PM 19.0 °F 11.1 °F 10.0 °F 68% 30.22 in 10.0 mi South 5.8 mph - N/A   Clear
7:54 PM 15.1 °F 6.4 °F 9.0 °F 77% 30.23 in 10.0 mi South 5.8 mph - N/A   Clear
8:54 PM 12.9 °F 3.8 °F 8.1 °F 81% 30.20 in 10.0 mi SE 5.8 mph - N/A   Clear
9:54 PM 12.0 °F 2.7 °F 7.0 °F 80% 30.18 in 10.0 mi SE 5.8 mph - N/A   Clear
10:54 PM 12.0 °F 2.7 °F 7.0 °F 80% 30.16 in 10.0 mi SE 5.8 mph - N/A   Partly Cloudy
11:54 PM 10.9 °F 1.4 °F 7.0 °F 84% 30.12 in 10.0 mi SE 5.8 mph - N/A   Scattered Clouds
12:54 AM 10.9 °F 2.9 °F 7.0 °F 84% 30.08 in 10.0 mi SE 4.6 mph - N/A   Clear